Date String (YYYY-MM-DD hh:mm:ss) UTC,Instrument flags,Ambient pressure (hPa),Sample flow (lpm),Bypass flow (lpm),Sample temperature (°C),Ambient temperature (°C),ASC tube jacket temperature (°C),LED temperature (°C),Box temperature (°C),Sample RH (%),Span deviation,Mass concentration (μg/m³),Mass concentration (μg/m³),Mass concentration (μg/m³)
DateTimeUTC,F1_M11,P_M11,Q1_M11,Q2_M11,T1_M11,T2_M11,T3_M11,T4_M11,T5_M11,U1_M11,ZSPAN_M11,X2_M11,X0_M11,X1_M11
2022-04-19 14:00:00,,0818.0,5.00,0.00,23.7,23.0,00.0,32.6,25.5,18.3,0001.8,0012.47,0029.86,0009.89
2022-04-19 14:01:00,,0818.0,4.99,0.00,23.7,23.0,00.0,32.6,25.5,18.4,0001.9,0012.56,0030.31,0009.92
2022-04-19 14:02:00,,0818.0,5.00,0.00,23.7,23.0,00.0,32.6,25.5,18.6,0001.9,0012.65,0029.97,0009.97
2022-04-19 14:03:00,,0818.0,5.00,0.00,23.7,22.9,00.0,32.6,25.5,18.7,0001.6,0012.70,0029.59,0010.02
2022-04-19 14:04:00,,0818.0,5.00,0.00,23.7,23.0,00.0,32.6,25.5,18.7,0001.6,0012.70,0029.13,0010.06
2022-04-19 14:05:00,,0818.0,5.00,0.00,23.7,23.0,00.0,32.6,25.6,18.7,0001.1,0012.78,0029.44,0010.08
2022-04-19 14:06:00,,0818.0,5.00,0.00,23.7,23.0,00.0,32.6,25.6,18.6,0001.0,0012.82,0029.82,0010.11
2022-04-19 14:07:00,,0818.0,5.00,0.00,23.8,23.0,00.0,32.6,25.6,18.2,0001.1,0012.78,0029.63,0010.08
2022-04-19 14:08:00,,0818.0,5.01,0.00,23.8,23.1,00.0,32.6,25.6,18.3,0000.7,0012.74,0028.06,0010.07
2022-04-19 14:09:00,,0817.9,5.00,0.00,23.8,23.1,00.0,32.7,25.6,18.3,0000.2,0012.78,0028.12,0010.10
2022-04-19 14:10:00,,0817.8,4.99,0.00,23.8,23.1,00.0,32.7,25.7,18.6,-000.1,0012.86,0028.29,0010.15
2022-04-19 14:11:00,,0817.8,5.01,0.00,23.8,23.1,00.0,32.7,25.7,18.4,-000.1,0012.90,0028.40,0010.19
2022-04-19 14:12:00,,0817.7,4.99,0.00,23.8,23.1,00.0,32.7,25.6,17.9,-000.4,0012.94,0028.60,0010.20
2022-04-19 14:13:00,,0817.7,5.00,0.00,23.8,23.1,00.0,32.7,25.6,17.5,-000.2,0012.90,0028.34,0010.14
2022-04-19 14:14:00,,0817.7,5.00,0.00,23.8,23.1,00.0,32.7,25.7,17.7,0000.3,0012.81,0027.64,0010.09
2022-04-19 14:15:00,,0817.7,5.00,0.00,23.8,23.1,00.0,32.7,25.6,17.5,0000.4,0012.80,0027.69,0010.04
2022-04-19 14:16:00,,0817.6,5.02,0.00,23.8,23.1,00.0,32.7,25.6,17.4,0000.9,0012.72,0027.63,0009.97
2022-04-19 14:17:00,,0817.7,5.00,0.00,23.8,23.1,00.0,32.7,25.6,17.7,0000.7,0012.68,0027.74,0009.94
2022-04-19 14:18:00,,0817.7,5.00,0.00,23.8,23.1,00.0,32.7,25.6,18.0,0000.4,0012.69,0027.90,0009.94
2022-04-19 14:19:00,,0817.7,5.00,0.00,23.8,23.1,00.0,32.7,25.7,18.2,0000.6,0012.69,0028.08,0009.94
2022-04-19 14:20:00,,0817.7,5.00,0.00,23.8,23.1,00.0,32.7,25.7,18.2,0001.4,0012.66,0028.25,0009.91
2022-04-19 14:21:00,,0817.7,5.00,0.00,23.9,23.1,00.0,32.7,25.7,18.2,0001.7,0012.66,0029.10,0009.87
2022-04-19 14:22:00,,0817.7,5.00,0.00,23.9,23.1,00.0,32.8,25.7,18.3,0001.9,0012.61,0028.55,0009.82
2022-04-19 14:23:00,,0817.7,5.00,0.00,23.9,23.2,00.0,32.8,25.8,17.9,0001.8,0012.54,0028.58,0009.79
2022-04-19 14:24:00,,0817.7,5.00,0.00,23.9,23.2,00.0,32.8,25.8,17.0,0001.5,0012.48,0029.95,0009.72
2022-04-19 14:25:00,,0817.7,4.99,0.00,23.9,23.2,00.0,32.8,25.8,16.4,0001.5,0012.45,0030.24,0009.62
2022-04-19 14:26:00,,0817.7,5.01,0.00,23.9,23.1,00.0,32.8,25.7,17.0,0001.7,0012.38,0029.89,0009.51
2022-04-19 14:27:00,,0817.6,5.00,0.00,23.9,23.1,00.0,32.8,25.7,17.3,0001.4,0012.31,0029.88,0009.43
2022-04-19 14:28:00,,0817.6,5.00,0.00,23.9,23.2,00.0,32.8,25.7,17.2,0001.5,0012.24,0029.78,0009.31
2022-04-19 14:29:00,,0817.7,5.00,0.00,23.9,23.2,00.0,32.8,25.8,17.1,0001.5,0012.18,0029.78,0009.14
2022-04-19 14:30:00,,0817.7,5.00,0.00,24.0,23.2,00.0,32.8,25.8,17.3,0001.4,0012.20,0031.69,0008.99
2022-04-19 14:31:00,,0817.7,5.00,0.00,24.0,23.2,00.0,32.8,25.9,17.1,0000.7,0012.11,0031.13,0008.82
2022-04-19 14:32:00,,0817.7,5.00,0.00,24.0,23.2,00.0,32.8,25.9,16.8,0000.3,0012.06,0030.53,0008.69
2022-04-19 14:33:00,,0817.7,5.00,0.00,24.0,23.3,00.0,32.9,25.9,17.8,0000.2,0012.04,0030.71,0008.61
2022-04-19 14:34:00,,0817.6,5.01,0.00,24.0,23.3,00.0,32.9,25.9,18.8,0000.3,0012.08,0031.16,0008.67
2022-04-19 14:35:00,,0817.5,5.00,0.00,24.0,23.3,00.0,32.9,25.9,18.8,0000.5,0012.20,0031.01,0008.78
2022-04-19 14:36:00,,0817.6,5.00,0.00,24.0,23.3,00.0,32.9,26.0,18.4,0000.4,0012.35,0031.28,0008.90
2022-04-19 14:37:00,,0817.6,5.00,0.00,24.1,23.3,00.0,32.9,26.0,18.7,0000.2,0012.47,0032.30,0009.05
2022-04-19 14:38:00,,0817.6,5.00,0.00,24.1,23.3,00.0,32.9,26.0,18.5,0000.4,0012.59,0032.62,0009.19
2022-04-19 14:39:00,,0817.5,5.00,0.00,24.1,23.3,00.0,32.9,26.0,18.5,0000.3,0012.68,0032.94,0009.34
2022-04-19 14:40:00,,0817.4,5.00,0.00,24.1,23.3,00.0,32.9,26.0,18.7,0000.4,0012.73,0032.45,0009.52
2022-04-19 14:41:00,,0817.5,5.00,0.00,24.1,23.3,00.0,33.0,26.0,18.6,0000.3,0012.76,0030.65,0009.68
2022-04-19 14:42:00,,0817.5,4.99,0.00,24.1,23.4,00.0,33.0,26.0,18.3,0000.1,0012.82,0030.32,0009.84
2022-04-19 14:43:00,,0817.5,4.98,0.00,24.1,23.4,00.0,33.0,26.0,18.3,0000.1,0012.80,0030.07,0010.00
2022-04-19 14:44:00,,0817.6,5.00,0.00,24.2,23.4,00.0,33.0,26.1,18.4,0000.1,0012.83,0031.17,0010.09
2022-04-19 14:45:00,,0817.4,5.00,0.00,24.2,23.4,00.0,33.0,26.1,18.3,0000.1,0012.73,0031.06,0010.03
2022-04-19 14:46:00,,0817.4,5.00,0.00,24.2,23.4,00.0,33.0,26.1,18.6,0000.4,0012.69,0031.66,0010.01
2022-04-19 14:47:00,,0817.4,5.00,0.00,24.2,23.4,00.0,33.0,26.1,18.8,0000.6,0012.76,0032.48,0010.06
2022-04-19 14:48:00,,0817.4,5.00,0.00,24.2,23.5,00.0,33.0,26.1,18.7,0000.6,0012.81,0032.43,0010.06
2022-04-19 14:49:00,,0817.4,5.00,0.00,24.2,23.5,00.0,33.1,26.1,18.4,0000.2,0012.81,0032.28,0010.02
2022-04-19 14:50:00,,0817.4,5.00,0.00,24.3,23.5,00.0,33.1,26.2,18.1,0000.1,0012.78,0031.60,0009.99
2022-04-19 14:51:00,,0817.4,5.00,0.00,24.3,23.5,00.0,33.1,26.2,18.1,0000.4,0012.68,0031.65,0009.93
2022-04-19 14:52:00,,0817.4,4.99,0.00,24.3,23.5,00.0,33.1,26.2,18.1,0000.5,0012.61,0033.01,0009.86
2022-04-19 14:53:00,,0817.4,5.00,0.00,24.3,23.5,00.0,33.1,26.2,17.9,0000.7,0012.59,0033.61,0009.78
2022-04-19 14:54:00,,0817.4,5.00,0.00,24.3,23.6,00.0,33.1,26.3,17.5,0000.4,0012.57,0033.55,0009.68
2022-04-19 14:55:00,,0817.3,5.00,0.00,24.3,23.6,00.0,33.2,26.3,17.5,0000.2,0012.52,0031.50,0009.58
2022-04-19 14:56:00,,0817.3,5.00,0.00,24.4,23.6,00.0,33.2,26.3,18.1,0000.6,0012.51,0031.32,0009.51
2022-04-19 14:57:00,,0817.2,5.02,0.00,24.4,23.6,00.0,33.2,26.3,18.1,0000.5,0012.52,0029.93,0009.46
2022-04-19 14:58:00,,0817.1,5.00,0.00,24.4,23.6,00.0,33.2,26.3,17.8,-000.0,0012.32,0028.97,0009.33
2022-04-19 14:59:00,,0817.1,5.00,0.00,24.4,23.6,00.0,33.2,26.3,17.9,-000.8,0012.16,0028.60,0009.21
